This demonstration page uses our WeatherBlox Daily Observations layout. Learn more.

39.92423, -83.80882

Hourly Observations for August 17, 2017

Temp ( °F °C ) Dew Point ( °F °C ) Humidity (%) Winds ( mph kmh ) Pressure ( in mb ) Visibility ( mi km ) Precip ( " mm )
12:56 am 00:56 Clear 73 22.8 71 21.7 94 94 SSE 5 7 29.96 1015 8 12.87472 0 0
1:56 am 01:56 Clear 74 23.3 71 21.7 91 91 S 6 9 29.96 1014 10 16.0934 0 0
2:56 am 02:56 Clear 74 23.3 71 21.7 91 91 S 5 7 29.94 1014 10 16.0934 0 0
3:56 am 03:56 Clear 73 22.8 71 21.7 94 94 S 3 6 29.93 1014 10 16.0934 0 0
5:41 am 05:41 Partly Cloudy with Thunderstorms 72 22 70 21 94 94 SSW 5 7 29.94 1014 10 16.0934 0 0
5:56 am 05:56 Mostly Cloudy with Heavy Thunderstorms 72 22.2 71 21.7 97 97 SW 15 24 29.94 1014 4 6.43736 0.1 2.54
6:06 am 06:06 Cloudy with Thunderstorms 72 22 72 22 100 100 WSW 7 11 29.94 1014 6 9.65604 0.05 1.27
6:15 am 06:15 Cloudy with Heavy Rain 72 22 70 21 94 94 W 6 9 29.94 1014 9 14.48406 0.08 2.032
6:40 am 06:40 Cloudy with Light Rain 72 22 70 21 94 94 SE 3 6 29.94 1014 10 16.0934 0.09 2.286
6:56 am 06:56 Cloudy 71 21.7 70 21.1 96 96 SSE 3 6 29.96 1014 10 16.0934 0.09 2.286
7:25 am 07:25 Partly Cloudy 70 21 70 21 100 100 ESE 3 6 29.94 1014 10 16.0934 0 0
7:56 am 07:56 Sunny 71 21.7 70 21.1 96 96 Calm 29.95 1014 10 16.0934 0 0
8:56 am 08:56 Partly Cloudy 75 23.9 73 22.8 94 94 SSW 6 9 29.96 1014 10 16.0934 0 0
9:07 am 09:07 Partly Cloudy 75 24 73 23 94 94 SSW 7 11 29.94 1014 10 16.0934 0 0
9:56 am 09:56 Mostly Sunny 77 25 74 23.3 90 90 SW 10 17 29.94 1014 10 16.0934 0 0
10:51 am 10:51 Mostly Cloudy 81 27 75 24 84 84 SW 10 17 29.88 1012 10 16.0934 0 0
10:56 am 10:56 Mostly Cloudy 80 26.7 75 23.9 85 85 SW 10 17 29.92 1013 10 16.0934 0 0
11:56 am 11:56 Cloudy 83 28.3 75 23.9 77 77 SSW 13 20 29.91 1013 10 16.0934 0 0
12:25 pm 12:25 Mostly Cloudy 84 29 75 24 74 74 SSW 8 13 29.85 1011 10 16.0934 0 0.0254
12:40 pm 12:40 Mostly Cloudy 82 28 75 24 79 79 SSW 10 17 29.85 1011 10 16.0934 0 0.0254
12:56 pm 12:56 Mostly Cloudy 84 28.9 76 24.4 77 77 S 9 15 29.88 1012 10 16.0934 0 0.0254
1:05 pm 13:05 Mostly Cloudy 84 29 75 24 74 74 SSW 9 15 29.85 1011 10 16.0934 0 0
1:56 pm 13:56 Mostly Sunny 83 28.3 74 23.3 74 74 SW 9 15 29.86 1011 10 16.0934 0 0
2:56 pm 14:56 Mostly Cloudy with Nearby Thunderstorms 81 27.2 73 22.8 77 77 SSW 5 7 29.84 1011 10 16.0934 0 0
3:14 pm 15:14 Cloudy with Nearby Thunderstorms 75 24 73 23 94 94 W 13 20 29.83 1010 1.75 2.816345 0.13 3.302
3:53 pm 15:53 Mostly Cloudy 75 24 73 23 94 94 S 3 6 29.83 1010 9 14.48406 0.17 4.318
3:56 pm 15:56 Mostly Cloudy 76 24.4 74 23.3 94 94 S 3 6 29.85 1011 9 14.48406 0.17 4.318
4:56 pm 16:56 Mostly Cloudy with Light Rain 74 23.3 73 22.8 97 97 S 7 11 29.85 1011 10 16.0934 0.01 0.254
5:23 pm 17:23 Mostly Sunny 73 23 73 23 100 100 SSW 9 15 29.85 1011 10 16.0934 0 0.0254
5:56 pm 17:56 Sunny 75 23.9 73 22.8 94 94 SSW 9 15 29.85 1011 10 16.0934 0 0.0254
6:56 pm 18:56 Partly Cloudy 77 25 73 22.8 88 88 SW 13 20 29.84 1010 10 16.0934 0.01 0.254
7:56 pm 19:56 Mostly Cloudy 76 24.4 73 22.8 91 91 SW 7 11 29.83 1010 10 16.0934 0 0
8:56 pm 20:56 Mostly Clear 75 23.9 73 22.8 94 94 SSW 6 9 29.85 1011 10 16.0934 0 0
9:56 pm 21:56 Clear 74 23.3 72 22.2 94 94 SSW 5 7 29.85 1011 10 16.0934 0 0
10:56 pm 22:56 Partly Cloudy 74 23.3 72 22.2 94 94 SSW 9 15 29.86 1011 10 16.0934 0 0
11:06 pm 23:06 Mostly Cloudy 73 23 72 22 94 94 SW 10 17 29.85 1011 10 16.0934 0 0
11:14 pm 23:14 Mostly Cloudy 73 23 72 22 94 94 SW 13 20 29.85 1011 10 16.0934 0 0
11:56 pm 23:56 Cloudy 74 23.3 72 22.2 94 94 SW 9 15 29.85 1011 10 16.0934 0 0

Powered by AerisWeather